Weather History for Plainview, TX

Change the Weather History Date:

Sunday, December 4, 2011

  Actual Average Record
Temperature  
Mean Temperature 34 °F -  
Max Temperature 39 °F 53 °F 80 °F (1954)
Min Temperature 28 °F 29 °F 14 °F (1921)
Degree Days  
Heating Degree Days 32    
Moisture  
Dew Point 27 °F    
Average Humidity 80    
Maximum Humidity 86    
Minimum Humidity 65    
Precipitation  
Precipitation 0.00 in - - ()
Sea Level Pressure  
Sea Level Pressure 30.10 in    
Wind  
Wind Speed 5 mph (ENE)    
Max Wind Speed 13 mph    
Max Gust Speed -    
Visibility 10 miles    
Events      
Averages and records for this station are not official NWS values.
T = Trace of Precipitation, MM = Missing Value Source: NWS Daily Summary

Daily Weather History Graph

Daily Weather History Graph

Search for Another Location

Airport:

Trip Planner

Search our weather history database for the weather conditions in past years. The results will help you decide how hot, cold, wet, or windy it might be!

Date:

Astronomy

Dec. 04, 2011 Rise Set
Actual Time 7:36 AM CST 5:37 PM CST
Civil Twilight 7:09 AM CST 6:04 PM CST
Nautical Twilight 6:38 AM CST 6:35 PM CST
Astronomical Twilight 6:07 AM CST 7:05 PM CST
Moon 1:58 PM CST (12/4) 2:15 AM CST (12/4)
Length of Visible Light 10h 55m
Length of Day
10h 00m
Waxing Gibbous, 72% of the Moon is Illuminated
Dec 4
Waxing Gibbous
Dec 10
Full
Dec 17
Last Quarter
Dec 24
New
Jan 1
First Quarter

Hourly Weather History & Observations

Time (CST) Temp. Windchill Dew Point Humidity Pressure Visibility Wind Dir Wind Speed Gust Speed Precip Events Conditions
12:15 AM 30.2 °F 26.7 °F 26.6 °F 86% 30.15 in 10.0 mi NE 3.5 mph - N/A   Scattered Clouds
12:35 AM 28.4 °F - 24.8 °F 86% 30.14 in 10.0 mi Calm Calm - N/A   Scattered Clouds
12:55 AM 28.4 °F 24.6 °F 23.0 °F 80% 30.13 in 10.0 mi NNE 3.5 mph - N/A   Clear
1:15 AM 28.4 °F 21.2 °F 24.8 °F 86% 30.12 in 10.0 mi North 6.9 mph - N/A   Clear
1:35 AM 30.2 °F 22.6 °F 26.6 °F 86% 30.11 in 10.0 mi NNW 8.1 mph - N/A   Scattered Clouds
1:55 AM 30.2 °F 20.8 °F 26.6 °F 86% 30.10 in 10.0 mi North 11.5 mph - N/A   Mostly Cloudy
2:35 AM 28.4 °F 20.4 °F 24.8 °F 86% 30.11 in 10.0 mi North 8.1 mph - N/A   Scattered Clouds
2:55 AM 30.2 °F 23.4 °F 26.6 °F 86% 30.12 in 10.0 mi North 6.9 mph - N/A   Mostly Cloudy
3:15 AM 30.2 °F 22.6 °F 26.6 °F 86% 30.12 in 10.0 mi NNE 8.1 mph - N/A   Overcast
3:35 AM 30.2 °F 23.4 °F 26.6 °F 86% 30.11 in 10.0 mi North 6.9 mph - N/A   Overcast
3:55 AM 30.2 °F 21.3 °F 26.6 °F 86% 30.10 in 10.0 mi North 10.4 mph - N/A   Overcast
4:15 AM 30.2 °F 20.8 °F 26.6 °F 86% 30.09 in 10.0 mi North 11.5 mph - N/A   Overcast
4:35 AM 30.2 °F 23.4 °F 26.6 °F 86% 30.09 in 10.0 mi North 6.9 mph - N/A   Overcast
4:55 AM 30.2 °F 20.2 °F 26.6 °F 86% 30.08 in 10.0 mi North 12.7 mph - N/A   Overcast
5:15 AM 30.2 °F 24.3 °F 26.6 °F 86% 30.09 in 10.0 mi North 5.8 mph - N/A   Overcast
5:35 AM 28.4 °F 24.6 °F 24.8 °F 86% 30.10 in 10.0 mi NE 3.5 mph - N/A   Overcast
5:55 AM 28.4 °F - 24.8 °F 86% 30.11 in 10.0 mi Calm Calm - N/A   Mostly Cloudy
6:15 AM 28.4 °F 24.6 °F 24.8 °F 86% 30.12 in 10.0 mi North 3.5 mph - N/A   Mostly Cloudy
6:35 AM 28.4 °F - 24.8 °F 86% 30.12 in 10.0 mi Calm Calm - N/A   Overcast
6:55 AM 28.4 °F - 24.8 °F 86% 30.13 in 10.0 mi Calm Calm - N/A   Mostly Cloudy
7:15 AM 28.4 °F 24.6 °F 24.8 °F 86% 30.12 in 10.0 mi North 3.5 mph - N/A   Mostly Cloudy
7:35 AM 28.4 °F - 24.8 °F 86% 30.13 in 10.0 mi Calm Calm - N/A   Overcast
7:55 AM 28.4 °F - 24.8 °F 86% 30.14 in 10.0 mi Calm Calm - N/A   Mostly Cloudy
8:15 AM 28.4 °F - 24.8 °F 86% 30.14 in 10.0 mi Calm Calm - N/A   Mostly Cloudy
8:35 AM 28.4 °F - 24.8 °F 86% 30.14 in 10.0 mi Calm Calm - N/A   Scattered Clouds
8:55 AM 30.2 °F 25.4 °F 26.6 °F 86% 30.14 in 10.0 mi NNE 4.6 mph - N/A   Clear
9:15 AM 30.2 °F 26.7 °F 26.6 °F 86% 30.13 in 10.0 mi ENE 3.5 mph - N/A   Clear
9:35 AM 30.2 °F 25.4 °F 24.8 °F 80% 30.13 in 10.0 mi East 4.6 mph - N/A   Clear
9:55 AM 30.2 °F 26.7 °F 26.6 °F 86% 30.13 in 10.0 mi East 3.5 mph - N/A   Clear
10:15 AM 32.0 °F - 26.6 °F 80% 30.14 in 10.0 mi Calm Calm - N/A   Clear
10:35 AM 32.0 °F - 26.6 °F 80% 30.13 in 10.0 mi Calm Calm - N/A   Clear
10:55 AM 32.0 °F 27.5 °F 26.6 °F 80% 30.13 in 10.0 mi SE 4.6 mph - N/A   Clear
11:15 AM 33.8 °F 28.6 °F 28.4 °F 81% 30.13 in 10.0 mi SSE 5.8 mph - N/A   Clear
11:35 AM 33.8 °F 27.7 °F 26.6 °F 75% 30.12 in 10.0 mi SSE 6.9 mph - N/A   Clear
11:55 AM 33.8 °F 30.8 °F 26.6 °F 75% 30.11 in 10.0 mi SE 3.5 mph - N/A   Clear
12:15 PM 35.6 °F 31.7 °F 28.4 °F 75% 30.11 in 10.0 mi SE 4.6 mph - N/A   Clear
12:35 PM 35.6 °F - 28.4 °F 75% 30.10 in 10.0 mi Calm Calm - N/A   Clear
12:55 PM 35.6 °F 31.7 °F 28.4 °F 75% 30.09 in 10.0 mi South 4.6 mph - N/A   Clear
1:15 PM 35.6 °F 32.8 °F 26.6 °F 70% 30.07 in 10.0 mi SE 3.5 mph - N/A   Clear
1:35 PM 37.4 °F 33.8 °F 28.4 °F 70% 30.07 in 10.0 mi ESE 4.6 mph - N/A   Scattered Clouds
1:55 PM 37.4 °F 32.8 °F 28.4 °F 70% 30.06 in 10.0 mi SE 5.8 mph - N/A   Mostly Cloudy
2:15 PM 39.2 °F 35.9 °F 28.4 °F 65% 30.05 in 10.0 mi SSE 4.6 mph - N/A   Overcast
2:35 PM 37.4 °F 34.9 °F 28.4 °F 70% 30.04 in 10.0 mi SE 3.5 mph - N/A   Overcast
2:55 PM 39.2 °F 35.0 °F 30.2 °F 70% 30.03 in 10.0 mi ESE 5.8 mph - N/A   Overcast
3:15 PM 39.2 °F 35.9 °F 30.2 °F 70% 30.02 in 10.0 mi East 4.6 mph - N/A   Overcast
3:35 PM 39.2 °F 35.0 °F 28.4 °F 65% 30.03 in 10.0 mi SE 5.8 mph - N/A   Overcast
3:55 PM 39.2 °F 35.0 °F 30.2 °F 70% 30.02 in 10.0 mi East 5.8 mph - N/A   Overcast
4:15 PM 39.2 °F 37.0 °F 30.2 °F 70% 30.04 in 10.0 mi ESE 3.5 mph - N/A   Overcast
4:35 PM 39.2 °F 35.9 °F 30.2 °F 70% 30.04 in 10.0 mi ESE 4.6 mph - N/A   Overcast
4:55 PM 39.2 °F 35.0 °F 30.2 °F 70% 30.05 in 10.0 mi SE 5.8 mph - N/A   Overcast
5:15 PM 39.2 °F 35.0 °F 32.0 °F 75% 30.04 in 10.0 mi ESE 5.8 mph - N/A   Overcast
5:35 PM 37.4 °F 32.8 °F 30.2 °F 75% 30.05 in 10.0 mi ESE 5.8 mph - N/A   Overcast
5:55 PM 35.6 °F 28.0 °F 30.2 °F 81% 30.06 in 10.0 mi East 10.4 mph - N/A   Overcast
6:15 PM 35.6 °F 27.5 °F 30.2 °F 81% 30.06 in 10.0 mi ENE 11.5 mph - N/A   Overcast
6:35 PM 35.6 °F 27.1 °F 30.2 °F 81% 30.08 in 10.0 mi ENE 12.7 mph - N/A   Overcast
6:55 PM 35.6 °F 27.1 °F 30.2 °F 81% 30.09 in 10.0 mi ENE 12.7 mph - N/A   Overcast
7:35 PM 33.8 °F 23.9 °F 32.0 °F 93% 30.10 in 5.0 mi NE 15.0 mph - N/A Snow Light Snow
7:55 PM 33.8 °F 23.5 °F 32.0 °F 93% 30.11 in 10.0 mi NE 16.1 mph - N/A   Overcast
8:15 PM 33.8 °F 24.3 °F 32.0 °F 93% 30.11 in 10.0 mi ENE 13.8 mph 18.4 mph N/A   Overcast
8:35 PM 33.8 °F 24.3 °F 32.0 °F 93% 30.11 in 10.0 mi ENE 13.8 mph 19.6 mph N/A   Overcast
8:55 PM 33.8 °F 24.8 °F 32.0 °F 93% 30.11 in 10.0 mi ENE 12.7 mph - N/A   Overcast
9:15 PM 33.8 °F 24.3 °F 32.0 °F 93% 30.11 in 10.0 mi ENE 13.8 mph - N/A   Overcast
9:35 PM 33.8 °F 23.5 °F 32.0 °F 93% 30.12 in 10.0 mi ENE 16.1 mph 20.7 mph N/A   Overcast
9:55 PM 33.8 °F 23.5 °F 32.0 °F 93% 30.11 in 10.0 mi ENE 16.1 mph 20.7 mph N/A   Overcast
10:15 PM 32.0 °F 21.6 °F 30.2 °F 93% 30.11 in 10.0 mi ENE 15.0 mph 23.0 mph N/A   Overcast
10:35 PM 32.0 °F 21.6 °F 30.2 °F 93% 30.11 in 10.0 mi ENE 15.0 mph - N/A   Overcast
10:55 PM 32.0 °F 22.1 °F 30.2 °F 93% 30.13 in 10.0 mi NE 13.8 mph - N/A   Overcast
11:15 PM 32.0 °F 21.6 °F 30.2 °F 93% 30.13 in 10.0 mi NE 15.0 mph - N/A   Overcast
11:35 PM 32.0 °F 21.6 °F 28.4 °F 87% 30.14 in 10.0 mi NE 15.0 mph - N/A   Overcast
11:55 PM 32.0 °F 21.2 °F 28.4 °F 87% 30.13 in 4.0 mi ENE 16.1 mph - N/A Snow Light Snow